Newton, KS

5:10 AM CDT on July 24, 2016 (GMT -0500)
Newton City County

Weather History for KEWK - January, 2013

Change the Weather History Date:

Friday, January 18, 2013

  Actual Average Record
Temperature  
Mean Temperature 45 °F -  
Max Temperature 55 °F 39 °F 62 °F (2006)
Min Temperature 35 °F 21 °F 10 °F (1997)
Degree Days  
Heating Degree Days 20    
Moisture  
Dew Point 27 °F    
Average Humidity 57    
Maximum Humidity 70    
Minimum Humidity 36    
Precipitation  
Precipitation 0.00 in - - ()
Sea Level Pressure  
Sea Level Pressure 30.23 in    
Wind  
Wind Speed 16 mph (SSW)    
Max Wind Speed 26 mph    
Max Gust Speed 36 mph    
Visibility 10 miles    
Events      
Averages and records for this station are not official NWS values.
T = Trace of Precipitation, MM = Missing Value Source: NWS Daily Summary

Daily Weather History Graph

Daily Weather History Graph

Search for Another Location

Airport or City:

Trip Planner

Search our weather history database for the weather conditions in past years. The results will help you decide how hot, cold, wet, or windy it might be!

Date:

Astronomy

Jan. 18, 2013 Rise Set
Actual Time 7:42 AM CST 5:36 PM CST
Civil Twilight 7:14 AM CST 6:05 PM CST
Nautical Twilight 6:41 AM CST 6:37 PM CST
Astronomical Twilight 6:10 AM CST 7:09 PM CST
Moon 11:29 AM CST (1/18) 12:20 AM CST (1/18)
Length of Visible Light 10h 51m
Length of Day
9h 54m
Waxing Crescent, 47% of the Moon is Illuminated
Jan 18
Waxing Crescent
Jan 18
First Quarter
Jan 26
Full
Feb 3
Last Quarter
Feb 10
New

Hourly Weather History & Observations

Time (CST) Temp. Windchill Dew Point Humidity Pressure Visibility Wind Dir Wind Speed Gust Speed Precip Events Conditions
12:15 AM 35.6 °F 28.6 °F 24.8 °F 65% 30.39 in 10.0 mi SSW 9.2 mph - N/A   Clear
12:35 AM 35.6 °F 28.0 °F 24.8 °F 65% 30.39 in 10.0 mi SSW 10.4 mph - N/A   Clear
12:55 AM 35.6 °F 27.1 °F 26.6 °F 70% 30.39 in 10.0 mi SSW 12.7 mph - N/A   Clear
1:15 AM 37.4 °F 28.5 °F 26.6 °F 65% 30.39 in 10.0 mi SSW 15.0 mph - N/A   Clear
1:35 AM 37.4 °F 28.9 °F 24.8 °F 60% 30.39 in 10.0 mi SSW 13.8 mph - N/A   Clear
1:55 AM 35.6 °F 27.1 °F 24.8 °F 65% 30.39 in 10.0 mi SSW 12.7 mph - N/A   Clear
2:15 AM 35.6 °F 26.6 °F 24.8 °F 65% 30.39 in 10.0 mi SSW 13.8 mph - N/A   Clear
2:35 AM 35.6 °F 26.2 °F 24.8 °F 65% 30.38 in 10.0 mi SSW 15.0 mph - N/A   Clear
2:55 AM 35.6 °F 26.2 °F 24.8 °F 65% 30.38 in 10.0 mi SSW 15.0 mph - N/A   Clear
3:15 AM 35.6 °F 25.9 °F 26.6 °F 70% 30.37 in 10.0 mi SSW 16.1 mph - N/A   Clear
3:35 AM 37.4 °F 27.8 °F 26.6 °F 65% 30.36 in 10.0 mi SSW 17.3 mph - N/A   Clear
3:55 AM 37.4 °F 28.2 °F 26.6 °F 65% 30.35 in 10.0 mi SSW 16.1 mph 21.9 mph N/A   Clear
4:15 AM 37.4 °F 27.8 °F 24.8 °F 60% 30.34 in 10.0 mi SSW 17.3 mph - N/A   Clear
4:35 AM 35.6 °F 25.2 °F 24.8 °F 65% 30.33 in 10.0 mi SSW 18.4 mph - N/A   Clear
4:55 AM 35.6 °F 25.5 °F 24.8 °F 65% 30.32 in 10.0 mi SSW 17.3 mph - N/A   Clear
5:15 AM 35.6 °F 25.5 °F 24.8 °F 65% 30.31 in 10.0 mi SSW 17.3 mph 20.7 mph N/A   Clear
5:35 AM 35.6 °F 25.2 °F 24.8 °F 65% 30.31 in 10.0 mi SSW 18.4 mph - N/A   Clear
5:55 AM 35.6 °F 25.9 °F 26.6 °F 70% 30.30 in 10.0 mi SSW 16.1 mph - N/A   Clear
6:15 AM 35.6 °F 25.2 °F 24.8 °F 65% 30.30 in 10.0 mi SSW 18.4 mph 24.2 mph N/A   Clear
6:35 AM 35.6 °F 25.5 °F 26.6 °F 70% 30.29 in 10.0 mi SSW 17.3 mph 25.3 mph N/A   Clear
6:55 AM 35.6 °F 24.8 °F 26.6 °F 70% 30.29 in 10.0 mi SSW 19.6 mph 23.0 mph N/A   Clear
7:15 AM 35.6 °F 25.2 °F 24.8 °F 65% 30.28 in 10.0 mi SSW 18.4 mph - N/A   Clear
7:35 AM 35.6 °F 25.5 °F 26.6 °F 70% 30.28 in 10.0 mi South 17.3 mph - N/A   Clear
7:55 AM 35.6 °F 25.5 °F 24.8 °F 65% 30.29 in 10.0 mi SSW 17.3 mph - N/A   Clear
8:15 AM 35.6 °F 24.8 °F 26.6 °F 70% 30.28 in 10.0 mi SSW 19.6 mph 25.3 mph N/A   Clear
8:35 AM 35.6 °F 25.5 °F 26.6 °F 70% 30.28 in 10.0 mi SSW 17.3 mph - N/A   Clear
8:55 AM 37.4 °F 27.5 °F 26.6 °F 65% 30.28 in 10.0 mi SSW 18.4 mph 26.5 mph N/A   Clear
9:15 AM 39.2 °F 29.0 °F 26.6 °F 61% 30.29 in 10.0 mi SSW 21.9 mph - N/A   Clear
9:35 AM 39.2 °F 29.3 °F 26.6 °F 61% 30.29 in 10.0 mi SSW 20.7 mph 27.6 mph N/A   Clear
9:55 AM 42.8 °F 33.5 °F 26.6 °F 53% 30.28 in 10.0 mi SSW 23.0 mph 28.8 mph N/A   Clear
10:15 AM 42.8 °F 33.1 °F 28.4 °F 57% 30.28 in 10.0 mi SSW 25.3 mph 31.1 mph N/A   Clear
10:35 AM 44.6 °F 35.7 °F 28.4 °F 53% 30.27 in 10.0 mi SSW 24.2 mph 32.2 mph N/A   Clear
10:55 AM 46.4 °F 37.9 °F 28.4 °F 50% 30.26 in 10.0 mi SSW 25.3 mph 35.7 mph N/A   Clear
11:15 AM 48.2 °F - 28.4 °F 46% 30.25 in 10.0 mi SSW 25.3 mph 35.7 mph N/A   Clear
11:35 AM 48.2 °F - 28.4 °F 46% 30.23 in 10.0 mi SSW 26.5 mph 35.7 mph N/A   Clear
4:35 PM 55.4 °F - 28.4 °F 36% 30.09 in 10.0 mi SSW 24.2 mph 32.2 mph N/A   Clear
4:55 PM 55.4 °F - 28.4 °F 36% 30.09 in 10.0 mi SSW 23.0 mph 31.1 mph N/A   Clear
5:15 PM 53.6 °F - 28.4 °F 38% 30.09 in 10.0 mi SSW 18.4 mph 27.6 mph N/A   Clear
5:35 PM 51.8 °F - 28.4 °F 41% 30.10 in 10.0 mi SSW 16.1 mph - N/A   Clear
5:55 PM 51.8 °F - 28.4 °F 41% 30.10 in 10.0 mi SSW 15.0 mph - N/A   Clear
6:15 PM 48.2 °F - 28.4 °F 46% 30.09 in 10.0 mi SSW 15.0 mph - N/A   Clear
6:35 PM 50.0 °F - 28.4 °F 43% 30.10 in 10.0 mi SSW 17.3 mph - N/A   Clear
6:55 PM 48.2 °F - 28.4 °F 46% 30.10 in 10.0 mi SSW 18.4 mph - N/A   Clear
7:15 PM 48.2 °F - 28.4 °F 46% 30.09 in 10.0 mi SSW 18.4 mph 24.2 mph N/A   Clear
7:35 PM 48.2 °F - 28.4 °F 46% 30.09 in 10.0 mi SSW 20.7 mph 24.2 mph N/A   Clear
7:55 PM 48.2 °F - 28.4 °F 46% 30.09 in 10.0 mi SSW 21.9 mph 26.5 mph N/A   Clear
8:35 PM 46.4 °F 38.3 °F 28.4 °F 50% 30.07 in 10.0 mi SSW 23.0 mph - N/A   Clear
8:55 PM 46.4 °F 38.1 °F 28.4 °F 50% 30.07 in 10.0 mi SSW 24.2 mph 29.9 mph N/A   Clear
9:15 PM 46.4 °F 38.5 °F 28.4 °F 50% 30.07 in 10.0 mi SSW 21.9 mph 28.8 mph N/A   Clear
9:35 PM 46.4 °F 38.5 °F 28.4 °F 50% 30.07 in 10.0 mi SSW 21.9 mph 28.8 mph N/A   Clear
9:55 PM 46.4 °F 39.0 °F 28.4 °F 50% 30.07 in 10.0 mi SSW 19.6 mph 25.3 mph N/A   Clear
10:15 PM 46.4 °F 39.2 °F 28.4 °F 50% 30.07 in 10.0 mi SSW 18.4 mph - N/A   Clear
10:35 PM 46.4 °F 39.2 °F 28.4 °F 50% 30.06 in 10.0 mi SSW 18.4 mph 25.3 mph N/A   Clear
10:55 PM 46.4 °F 39.0 °F 28.4 °F 50% 30.06 in 10.0 mi SSW 19.6 mph 24.2 mph N/A   Clear
11:15 PM 44.6 °F 37.2 °F 28.4 °F 53% 30.06 in 10.0 mi SSW 17.3 mph 24.2 mph N/A   Clear
11:35 PM 44.6 °F 37.2 °F 28.4 °F 53% 30.06 in 10.0 mi SSW 17.3 mph - N/A   Clear
11:55 PM 42.8 °F 35.1 °F 28.4 °F 57% 30.05 in 10.0 mi SSW 16.1 mph - N/A   Clear